カタログに戻る

COSMOS 970 DEB

運用中LEO
NORAD 10565·DEBRIS·🇷🇺 Russia

打ち上げ Dec 21, 1977 から Baikonur Cosmodrome

Loading…

次のパス (今後24時間)

TLE

最新Source: Space-Track

元期: Sep 14, 2026, 06:17 UTC

1 10565U 77121G   26257.26222373  .00000121  00000-0  23106-3 0  9993
2 10565  65.8278 197.3273 0119412 198.3348 236.2455 13.66145282421340

AllMySatでCOSMOS 970 DEBをリアルタイム追跡

Download on the App Store